| time (UTC) | temp C | wind direction | speed KPH | gust KPH | rain 1hr cm | rain 24hr cm | rain mn cm | humidity % | barometer mb |
| 20260509031926 | 7 | 310 | 3.2 | 0.0 | 0.00 | 0.00 | 0.00 | 87 | |
| 20260509021926 | 7 | 300 | 3.2 | 0.0 | 0.00 | 0.00 | 0.00 | 87 | |
| 20260509012027 | 7 | 290 | 3.2 | 0.0 | 0.00 | 0.00 | 0.00 | 87 | |
| 20260509001925 | 7 | 310 | 3.2 | 0.0 | 0.00 | 0.00 | 0.00 | 87 | |
| 20260508231925 | 7 | 320 | 8.0 | 0.0 | 0.00 | 0.00 | 0.00 | 87 | |
| 20260508222125 | 7 | 320 | 8.0 | 0.0 | 0.00 | 0.00 | 0.00 | 87 | |
| 20260508211926 | 7 | 340 | 8.0 | 0.0 | 0.00 | 0.00 | 0.00 | 87 | |
| 20260508201927 | 8 | 350 | 11.3 | 0.0 | 0.00 | 0.00 | 0.00 | 81 | |
| 20260508192031 | 10 | 20 | 11.3 | 0.0 | 0.00 | 0.00 | 0.00 | 76 | |
| 20260508181925 | 11 | 20 | 14.5 | 0.0 | 0.00 | 0.00 | 0.00 | 71 | |
| 20260508171925 | 12 | 20 | 11.3 | 0.0 | 0.00 | 0.00 | 0.00 | 62 | |
| 20260508162126 | 13 | 30 | 11.3 | 0.0 | 0.00 | 0.00 | 0.00 | 58 | |
| 20260508151927 | 13 | 10 | 11.3 | 0.0 | 0.00 | 0.00 | 0.00 | 58 | |
| 20260508141926 | 12 | 10 | 14.5 | 0.0 | 0.00 | 0.00 | 0.00 | 62 | |
| 20260508132031 | 12 | 350 | 14.5 | 0.0 | 0.00 | 0.00 | 0.00 | 66 | |
| 20260508121925 | 12 | 360 | 14.5 | 0.0 | 0.00 | 0.00 | 0.00 | 62 | |
| 20260508111927 | 12 | 330 | 11.3 | 0.0 | 0.00 | 0.00 | 0.00 | 66 | |
| 20260508102127 | 12 | 300 | 14.5 | 0.0 | 0.00 | 0.00 | 0.00 | 66 | |
| 20260508091925 | 12 | 310 | 14.5 | 0.0 | 0.00 | 0.00 | 0.00 | 66 | |
| 20260508081925 | 11 | 290 | 11.3 | 0.0 | 0.00 | 0.00 | 0.00 | 71 | |
| 20260508072028 | 8 | 290 | 11.3 | 0.0 | 0.00 | 0.00 | 0.00 | 81 | |
| 20260508061927 | 7 | 360 | 8.0 | 0.0 | 0.00 | 0.00 | 0.00 | 87 | |
| 20260508051925 | 7 | 330 | 8.0 | 0.0 | 0.00 | 0.00 | 0.00 | 87 | |
| 20260508042129 | 7 | 330 | 8.0 | 0.0 | 0.00 | 0.00 | 0.00 | 87 |